HIROGARI (OPUSAT-II) (47930 NORAD) Tracking and Keplerian Element Data

This shows tracking and keplerian element data for the satellite.

Feedback or suggestion? Click here.




ElementValue
Catalog47930
NameHIROGARI (OPUSAT-II)
Epoch Orbit6184
Epoch Day104.40989677
Epoch Year2022
RAAN260.0446
Inclination51.6157
Eccentricity0.0013462
Argument of Perigee303.1008
Mean Anonmoly56.8718
Mean Motion16.20863404
Decay Rate0.03524807
L11 47930U 98067SG 22104.40989677 .03524807 11894-4 16214-2 0 9994
L22 47930 51.6157 260.0446 0013462 303.1008 56.8718 16.20863404 61841



Live tracking and technical data element details for HIROGARI (OPUSAT-II) (NORAD 47930). HIROGARI (OPUSAT-II) can be tracked NOW for your location showing map with azimuth and elevation plus other details from your city location.







IsCatalogInMostPopularTable: catalog: 47930, numindb: 131
Update: records affected: 1



GetName: 47930 HIROGARI (OPUSAT-II)

Hit Count: updated at: Thu, 23 Jan 2025 17:43:27 GMT